Regional Weather Roundup
Issued by NWS

Home | Current Version | Previous Version | Graphics & Text | Print | Product List | Glossary On
Versions: 1 2 3 4 5 6 7 8 9 10 11 12 13 14 15 16 17 18 19 20 21 22 23 24 25 26 27 28 29 30 31 32 33 34 35 36 37 38 39 40 41 42 43 44 45 46 47 48 49 50
617
ASUS43 KFSD 250810
RWRSD

WEATHER ROUNDUP FOR SOUTH DAKOTA
NATIONAL WEATHER SERVICE SIOUX FALLS SD
300 AM CDT THU MAY 25 2017

NOTE: "FAIR" INDICATES FEW OR NO CLOUDS BELOW 12,000 FEET WITH NO
SIGNIFICANT WEATHER AND/OR OBSTRUCTIONS TO VISIBILITY.


SDZ001>005-009-010-012>017-250900-
NORTHWEST AND NORTH CENTRAL SOUTH DAKOTA

CITY           SKY/WX    TMP DP  RH WIND       PRES   REMARKS
BUFFALO          N/A     50  45  83 N9        29.36R
FAITH            N/A     54  44  69 S12       29.28R
MOBRIDGE       CLOUDY    54  45  71 E12       29.40R
$$

SDZ012>016-024>037-041>051-057-063-072>074-250900-
SOUTHWEST AND SOUTH CENTRAL SOUTH DAKOTA

CITY           SKY/WX    TMP DP  RH WIND       PRES   REMARKS
RAPID CTY ARPT CLEAR     57  45  64 NW22G29   29.40R
PIERRE         MOCLDY    57  42  57 SE23G32   29.34F
CUSTER         CLEAR     52  44  74 N7        29.47R
ELLSWORTH AFB  CLOUDY    57  46  66 NW20G26   29.40R
PHILIP         PTCLDY    54  45  71 SW5       29.31R
PINE RIDGE     CLEAR     58  48  69 S14       29.39R
SPEARFISH      MOCLDY    54  37  54 NW9       29.47F
WINNER         FAIR      57  44  62 S20G31    29.38F
$$

SDZ004>011-016>023-039-040-250900-
NORTHEAST SOUTH DAKOTA

CITY           SKY/WX    TMP DP  RH WIND       PRES   REMARKS
ABERDEEN       CLEAR     51  41  68 SE21G32   29.48F
WATERTOWN      CLEAR     47  42  83 SE9       29.59S
BROOKINGS      CLEAR     48  42  80 SE13      29.62S
SISSETON         N/A     43  43 100 S6        29.60R
$$

SDZ017-020-022-023-036>040-048>070-250900-
SOUTHEAST SOUTH DAKOTA

CITY           SKY/WX    TMP DP  RH WIND       PRES   REMARKS
SIOUX FALLS    CLEAR     51  45  79 SE13      29.62S
HURON          CLEAR     51  45  79 SE17G25   29.50F
CHAMBERLAIN    PTCLDY    54  46  76 SE16      29.45S
MITCHELL       CLEAR     51  44  77 SE15      29.54F
YANKTON        PTCLDY    51  43  74 SE9       29.59F
$$

ABBREVIATIONS USED IN REMARKS
   TC - TEMPERATURE IN CELSIUS
  WCI - WIND CHILL INDEX
   HX - HEAT INDEX
  VSB - VISIBILITY





USA.gov is the U.S. government's official web portal to all federal, state and local government web resources and services.